星链-37972(STARLINK-37972)

导读

STARLINK-37972(NORAD编号69708)是美国SpaceX公司星链低轨互联网星座的组网卫星,属于星链V2 Mini系列,由猎鹰9号火箭于2026年6月中旬在范登堡太空军基地发射入轨,部署于高度约340-360公里、倾角53度的近地轨道,当前处于在轨测试升轨阶段,后续将逐步爬升至约550公里的工作轨道,为全球提供低时延宽带互联网服务,单星设计寿命约5年,可支持高速数据传输与多场景通信覆盖。(150字)

基本信息
目录编号:
69708
目录名称:
STARLINK-37972
国际标识:
2026-147E
轨道中心:
EARTH
卫星名称:
星链-37972
卫星全名:
星链-37972(STARLINK-37972)
卫星状态:
在轨 (已飞行68 天)
发射日期:
2026-06-28 UTC
国别 :
美国 (US)
星等 :
--
轨道信息
数据来源 国际轨道数据 AOE轨道数据
星历时间 2026-09-03T21:21:17+0800
16小时前
查看轨道信息
2026-09-03T23:00:00+0800
15小时前
查看轨道信息
半长轴 6843.687km 6843.708km
偏心率 0.0001177 0.0001225
轨道倾角 97.284° 97.286°
近地点辐角 95.653° 91.624°
升交点赤经 283.110° 283.180°
平近点角 264.485° 286.719°
近地点 464.744km 464.732km
远地点 466.356km 466.41km
周期 93.906分钟 93.907分钟
每日圈数 15.334428 15.334358
详细信息
固有亮度:
5
最大亮度:
2.5
卫星平台:
Starlink V1.0
覆盖范围:
全球
运营商:
太空探索技术公司
运营商所在国:
美国
制造商(研发单位):
太空探索技术公司
制造商所在国:
美国
使用方式:
暂无
卫星简介
Starlink 计划是 SpaceX 推出的全球卫星互联网项目,通过发射低轨道卫星,为全球尤其是偏远地区提供高速、低延迟的互联网服务。自 2019 年起,Starlink 已部署数千颗卫星,旨在缩小全球数字鸿沟,推动互联网普及。该项目还为军事、航空等行业提供通信支持,带来广泛经济效益。
2D轨道图
3D轨道图
轨道高度分析图
轨道倾角分析图
轨道综合分析图
查看轨道综合分析图